Roseburg, OR

4:59 AM PDT on September 28, 2016 (GMT -0700)
Roseburg Regional

Weather History for KRBG - September, 2013

Change the Weather History Date:

Saturday, September 14, 2013

  Actual Average Record
Temperature  
Mean Temperature 74 °F 66 °F  
Max Temperature 87 °F 79 °F 101 °F (1937)
Min Temperature 61 °F 52 °F 42 °F (1952)
Degree Days  
Heating Degree Days 0 2  
Month to date heating degree days 0 16  
Since 1 July heating degree days 1 37  
Cooling Degree Days 9 2  
Month to date cooling degree days 115 44  
Year to date cooling degree days 817 455  
Growing Degree Days 24 (Base 50)    
Moisture  
Dew Point 60 °F    
Average Humidity 65    
Maximum Humidity 90    
Minimum Humidity 39    
Precipitation  
Precipitation 0.00 in 0.03 in 0.54 in (1968)
Month to date precipitation 0.10 0.35  
Year to date precipitation 8.64 20.00  
Sea Level Pressure  
Sea Level Pressure 29.78 in    
Wind  
Wind Speed 3 mph (North)    
Max Wind Speed 15 mph    
Max Gust Speed 20 mph    
Visibility 10 miles    
Events      
T = Trace of Precipitation, MM = Missing Value Source: NWS Daily Summary

Daily Weather History Graph

Daily Weather History Graph

Search for Another Location

Airport or City:

Trip Planner

Search our weather history database for the weather conditions in past years. The results will help you decide how hot, cold, wet, or windy it might be!

Date:

Astronomy

Sep. 14, 2013 Rise Set
Actual Time 6:52 AM PDT 7:24 PM PDT
Civil Twilight 6:23 AM PDT 7:53 PM PDT
Nautical Twilight 5:49 AM PDT 8:26 PM PDT
Astronomical Twilight 5:14 AM PDT 9:01 PM PDT
Moon 4:16 PM PDT (9/14) 1:23 AM PDT (9/14)
Length of Visible Light 13h 29m
Length of Day
12h 32m
Waxing Gibbous, 73% of the Moon is Illuminated
Sep 14
Waxing Gibbous
Sep 19
Full
Sep 26
Last Quarter
Oct 4
New
Oct 11
First Quarter

Hourly Weather History & Observations

Time (PDT) Temp. Heat Index Dew Point Humidity Pressure Visibility Wind Dir Wind Speed Gust Speed Precip Events Conditions
12:53 AM 66.9 °F - 60.1 °F 79% 29.83 in 10.0 mi Calm Calm - N/A   Clear
1:53 AM 64.9 °F - 59.0 °F 81% 29.83 in 10.0 mi Calm Calm - N/A   Clear
2:53 AM 64.0 °F - 59.0 °F 84% 29.82 in 10.0 mi Calm Calm - N/A   Clear
3:53 AM 62.1 °F - 59.0 °F 90% 29.82 in 10.0 mi Calm Calm - N/A   Clear
4:38 AM 62.6 °F - 59.0 °F 88% 29.83 in 10.0 mi Calm Calm - N/A   Mostly Cloudy
4:53 AM 62.1 °F - 59.0 °F 90% 29.82 in 10.0 mi Calm Calm - N/A   Overcast
5:53 AM 63.0 °F - 59.0 °F 87% 29.81 in 10.0 mi Calm Calm - N/A   Overcast
6:33 AM 62.6 °F - 59.0 °F 88% 29.83 in 10.0 mi Calm Calm - N/A   Overcast
6:53 AM 64.0 °F - 59.0 °F 84% 29.82 in 10.0 mi Calm Calm - N/A   Overcast
7:21 AM 64.4 °F - 59.0 °F 83% 29.83 in 10.0 mi Calm Calm - N/A   Overcast
7:53 AM 64.0 °F - 60.1 °F 87% 29.82 in 10.0 mi Calm Calm - N/A   Overcast
8:13 AM 64.4 °F - 60.8 °F 88% 29.83 in 10.0 mi Calm Calm - N/A   Overcast
8:53 AM 64.0 °F - 60.1 °F 87% 29.82 in 10.0 mi Calm Calm - N/A   Overcast
9:53 AM 66.0 °F - 60.1 °F 81% 29.82 in 10.0 mi Calm Calm - N/A   Overcast
10:21 AM 66.2 °F - 60.8 °F 83% 29.82 in 10.0 mi Calm Calm - N/A   Overcast
10:53 AM 66.0 °F - 60.1 °F 81% 29.81 in 10.0 mi Calm Calm - N/A   Overcast
11:53 AM 69.1 °F - 61.0 °F 75% 29.79 in 10.0 mi Calm Calm - N/A   Mostly Cloudy
12:11 PM 69.8 °F - 60.8 °F 73% 29.79 in 10.0 mi Calm Calm - N/A   Mostly Cloudy
12:18 PM 71.6 °F - 60.8 °F 69% 29.79 in 10.0 mi Calm Calm - N/A   Partly Cloudy
12:53 PM 72.0 °F - 61.0 °F 68% 29.77 in 10.0 mi Calm Calm - N/A   Clear
1:53 PM 79.0 °F - 61.0 °F 54% 29.73 in 10.0 mi Calm Calm - N/A   Clear
2:53 PM 84.9 °F 84.4 °F 59.0 °F 41% 29.71 in 10.0 mi Variable 4.6 mph - N/A   Clear
3:53 PM 87.1 °F 86.5 °F 59.0 °F 39% 29.69 in 10.0 mi NNE 11.5 mph - N/A   Clear
4:53 PM 86.0 °F 85.4 °F 59.0 °F 40% 29.68 in 10.0 mi North 12.7 mph - N/A   Clear
5:53 PM 84.0 °F 83.8 °F 59.0 °F 43% 29.69 in 10.0 mi North 9.2 mph - N/A   Clear
6:53 PM 75.9 °F - 60.1 °F 58% 29.71 in 10.0 mi NW 6.9 mph - N/A   Clear
7:53 PM 72.0 °F - 60.1 °F 66% 29.73 in 10.0 mi North 6.9 mph - N/A   Clear
8:53 PM 69.1 °F - 59.0 °F 70% 29.75 in 10.0 mi North 6.9 mph - N/A   Clear
9:53 PM 66.9 °F - 57.9 °F 73% 29.76 in 10.0 mi NNE 5.8 mph - N/A   Clear
10:53 PM 64.9 °F - 57.9 °F 78% 29.77 in 10.0 mi NNE 4.6 mph - N/A   Clear
11:53 PM 64.0 °F - 57.9 °F 80% 29.77 in 10.0 mi North 4.6 mph - N/A   Scattered Clouds